Change the Weather History Date:

Monday, June 24, 2013

  Actual Average Record
Temperature  
Mean Temperature 80 °F 70 °F  
Max Temperature 87 °F 80 °F 93 °F (1997)
Min Temperature 72 °F 59 °F 46 °F (2006)
Degree Days  
Heating Degree Days 0    
Month to date heating degree days 53  
Since 1 June heating degree days 53  
Since 1 July heating degree days 6548  
Cooling Degree Days 15    
Month to date cooling degree days 94  
Year to date cooling degree days 168  
Since 1 June cooling degree days 94  
Growing Degree Days 30 (Base 50)    
Moisture  
Dew Point 67 °F    
Average Humidity 65    
Maximum Humidity 79    
Minimum Humidity 50    
Precipitation  
Precipitation 0.00 in 0.10 in 0.47 in (2004)
Month to date precipitation 1.36 2.38  
Year to date precipitation 19.71 14.03  
Snow  
Snow 0.00 in - - ()
Month to date snowfall 0.0  
Since 1 June snowfall 0.0  
Since 1 July snowfall 43.5  
Snow Depth 0.00 in    
Sea Level Pressure  
Sea Level Pressure 29.98 in    
Wind  
Wind Speed 11 mph (SW)    
Max Wind Speed 21 mph    
Max Gust Speed 25 mph    
Visibility 10 miles    
Events      
T = Trace of Precipitation, MM = Missing Value Source: NWS Daily Summary

Daily Weather History Graph

Daily Weather History Graph

Search for Another Location

Airport or City:

Trip Planner

Search our weather history database for the weather conditions in past years. The results will help you decide how hot, cold, wet, or windy it might be!

Date:

Astronomy

Jun. 24, 2013 Rise Set
Actual Time 5:56 AM EDT 9:21 PM EDT
Civil Twilight 5:20 AM EDT 9:57 PM EDT
Nautical Twilight 4:33 AM EDT 10:44 PM EDT
Astronomical Twilight 3:34 AM EDT 11:43 PM EDT
Moon 10:18 PM EDT (6/24) 7:25 AM EDT (6/24)
Length of Visible Light 16h 37m
Length of Day
15h 25m
Full, 98% of the Moon is Illuminated
Jun 24
Full
Jun 30
Last Quarter
Jul 8
New
Jul 15
First Quarter
Jul 22
Full

Hourly Weather History & Observations

Time (EDT) Temp. Heat Index Dew Point Humidity Pressure Visibility Wind Dir Wind Speed Gust Speed Precip Events Conditions
12:53 AM 77.0 °F - 66.0 °F 69% 29.99 in 10.0 mi SSW 5.8 mph - N/A   Clear
1:53 AM 75.0 °F - 66.0 °F 73% 29.99 in 10.0 mi SW 5.8 mph - N/A   Clear
2:53 AM 73.9 °F - 66.0 °F 76% 29.99 in 10.0 mi SW 6.9 mph - N/A   Clear
3:53 AM 73.9 °F - 66.9 °F 79% 30.00 in 10.0 mi SW 8.1 mph - N/A   Clear
4:53 AM 73.9 °F - 66.0 °F 76% 30.00 in 10.0 mi SW 11.5 mph - N/A   Clear
5:53 AM 73.0 °F - 66.0 °F 79% 30.00 in 10.0 mi SW 6.9 mph - N/A   Clear
6:53 AM 73.0 °F - 66.0 °F 79% 30.00 in 10.0 mi SSW 6.9 mph - N/A   Clear
7:53 AM 73.9 °F - 66.9 °F 79% 30.01 in 10.0 mi SW 12.7 mph - N/A   Clear
8:53 AM 75.9 °F - 68.0 °F 76% 30.02 in 10.0 mi SW 11.5 mph - N/A   Clear
9:53 AM 78.1 °F - 68.0 °F 71% 30.02 in 10.0 mi SW 13.8 mph - N/A   Partly Cloudy
10:11 AM 78.8 °F - 68.0 °F 69% 30.03 in 10.0 mi SW 13.8 mph - N/A   Mostly Cloudy
10:53 AM 79.0 °F - 69.1 °F 72% 30.02 in 9.0 mi WSW 10.4 mph 21.9 mph N/A   Overcast
11:17 AM 80.6 °F 83.9 °F 69.8 °F 70% 30.03 in 8.0 mi SW 12.7 mph - N/A   Scattered Clouds
11:53 AM 82.0 °F 85.5 °F 69.1 °F 65% 30.02 in 9.0 mi SW 13.8 mph 23.0 mph N/A   Scattered Clouds
12:13 PM 82.4 °F 86.3 °F 69.8 °F 66% 30.03 in 10.0 mi WSW 12.7 mph - N/A   Mostly Cloudy
12:27 PM 82.4 °F 86.3 °F 69.8 °F 66% 30.02 in 10.0 mi SW 17.3 mph 24.2 mph N/A   Mostly Cloudy
12:53 PM 84.9 °F 88.2 °F 68.0 °F 57% 30.01 in 10.0 mi SW 12.7 mph 20.7 mph N/A   Partly Cloudy
1:53 PM 86.0 °F 88.2 °F 66.0 °F 51% 29.99 in 10.0 mi SW 17.3 mph 21.9 mph N/A   Partly Cloudy
2:53 PM 86.0 °F 88.8 °F 66.9 °F 53% 29.96 in 10.0 mi SW 13.8 mph 19.6 mph N/A   Scattered Clouds
3:53 PM 87.1 °F 90.6 °F 68.0 °F 53% 29.95 in 10.0 mi WSW 13.8 mph 21.9 mph N/A   Partly Cloudy
4:53 PM 87.1 °F 89.9 °F 66.9 °F 51% 29.92 in 10.0 mi WSW 15.0 mph 19.6 mph N/A   Partly Cloudy
5:53 PM 84.9 °F 87.1 °F 66.0 °F 53% 29.91 in 10.0 mi West 13.8 mph - N/A   Scattered Clouds
6:53 PM 84.9 °F 86.1 °F 64.0 °F 49% 29.92 in 10.0 mi SW 13.8 mph 20.7 mph N/A   Scattered Clouds
7:53 PM 82.9 °F 84.0 °F 63.0 °F 51% 29.92 in 10.0 mi West 11.5 mph - N/A   Scattered Clouds
8:53 PM 81.0 °F 82.5 °F 64.0 °F 56% 29.91 in 10.0 mi West 5.8 mph - N/A   Clear
9:53 PM 78.1 °F - 64.9 °F 64% 29.91 in 10.0 mi WSW 13.8 mph - N/A   Mostly Cloudy
10:53 PM 75.0 °F - 64.0 °F 69% 29.91 in 10.0 mi SSW 3.5 mph - N/A   Mostly Cloudy
11:53 PM 73.0 °F - 64.0 °F 73% 29.90 in 10.0 mi SSW 3.5 mph - N/A   Clear